TAR700 DTTA-LFMT

Flight info

Callsign TAR700
Flight time N/A
Altitude 36000
Route TOBIB3C TOBIB UA725 TANIT UM739 NIVAB M739 TABOT DCT KUPIM DCT NIVDA DCT RASPA UN854 TINOT Z154 BULTO Y341 SALIN Y25 MARRI
Aircraft A320/M-SDE3FGHIRWY/LB1

Departure

Time 2026-05-04 13:13
Airport Tunis Carthage International Airport (DTTA)

Arrival

Time N/A
Airport Montpellier-Méditerranée Airport (LFMT)
Time Latitude Longitude Altitude Speed Heading
2026-05-04 12:53 36.84533 10.21881 31 ft 0 kts
2026-05-04 13:03 36.84525 10.21881 30 ft 4 kts
2026-05-04 13:03 36.84508 10.21880 30 ft 4 kts
2026-05-04 13:04 36.84475 10.21877 30 ft 4 kts 11°
2026-05-04 13:04 36.84460 10.21872 30 ft 4 kts 35°
2026-05-04 13:04 36.84452 10.21859 30 ft 3 kts 108°
2026-05-04 13:04 36.84458 10.21829 30 ft 4 kts 98°
2026-05-04 13:05 36.84460 10.21810 30 ft 0 kts 103°
2026-05-04 13:07 36.84459 10.21815 30 ft 1 kts 103°
2026-05-04 13:07 36.84456 10.21834 30 ft 3 kts 103°
2026-05-04 13:08 36.84449 10.21872 30 ft 6 kts 103°
2026-05-04 13:08 36.84438 10.21929 30 ft 8 kts 103°
2026-05-04 13:08 36.84446 10.22002 30 ft 10 kts 59°
2026-05-04 13:08 36.84490 10.22078 30 ft 12 kts 53°
2026-05-04 13:09 36.84495 10.22183 30 ft 13 kts 103°
2026-05-04 13:09 36.84541 10.22270 30 ft 15 kts 16°
2026-05-04 13:09 36.84647 10.22300 30 ft 17 kts 13°
2026-05-04 13:09 36.84766 10.22330 30 ft 18 kts 10°
2026-05-04 13:10 36.84896 10.22366 30 ft 20 kts 14°
2026-05-04 13:10 36.85015 10.22339 31 ft 19 kts 301°
2026-05-04 13:10 36.85062 10.22199 31 ft 17 kts 292°
2026-05-04 13:10 36.85103 10.22072 30 ft 15 kts 292°
2026-05-04 13:11 36.85141 10.21960 30 ft 13 kts 293°
2026-05-04 13:11 36.85174 10.21859 30 ft 12 kts 292°
2026-05-04 13:11 36.85205 10.21771 30 ft 10 kts 294°
2026-05-04 13:11 36.85247 10.21711 30 ft 9 kts 336°
2026-05-04 13:12 36.85298 10.21722 30 ft 7 kts 24°
2026-05-04 13:12 36.85335 10.21742 30 ft 5 kts 24°
2026-05-04 13:12 36.85372 10.21762 31 ft 9 kts 20°
2026-05-04 13:12 36.85407 10.21828 32 ft 13 kts 110°
2026-05-04 13:13 36.85310 10.22116 32 ft 69 kts 112°
2026-05-04 13:13 36.85045 10.22912 32 ft 128 kts 112°
2026-05-04 13:13 36.84644 10.24120 144 ft 163 kts 112°
2026-05-04 13:13 36.84204 10.25425 745 ft 163 kts 114°
2026-05-04 13:14 36.83770 10.26733 1448 ft 162 kts 116°
2026-05-04 13:14 36.83334 10.28052 1977 ft 170 kts 115°
2026-05-04 13:14 36.82799 10.29471 2173 ft 191 kts 130°
2026-05-04 13:14 36.81678 10.30425 2375 ft 208 kts 168°
2026-05-04 13:15 36.80217 10.30284 2813 ft 218 kts 207°
2026-05-04 13:15 36.79128 10.29029 3503 ft 217 kts 244°
2026-05-04 13:15 36.78918 10.27185 4163 ft 222 kts 282°
2026-05-04 13:15 36.79743 10.25575 4889 ft 229 kts 322°
2026-05-04 13:16 36.81192 10.24733 5591 ft 232 kts 338°
2026-05-04 13:16 36.82719 10.24064 6305 ft 234 kts 338°
2026-05-04 13:16 36.84254 10.23420 6972 ft 235 kts 339°
2026-05-04 13:16 36.85834 10.22829 7573 ft 243 kts 342°
2026-05-04 13:17 36.87558 10.22291 7827 ft 267 kts 345°
2026-05-04 13:17 36.89427 10.21727 8282 ft 281 kts 345°
2026-05-04 13:17 36.91347 10.21150 8995 ft 286 kts 345°
2026-05-04 13:17 36.93292 10.20566 9754 ft 289 kts 345°
2026-05-04 13:18 36.95263 10.19965 10336 ft 299 kts 343°
2026-05-04 13:18 36.97361 10.19328 10496 ft 322 kts 346°
2026-05-04 13:18 36.99677 10.19238 10711 ft 345 kts
2026-05-04 13:18 37.02049 10.19925 10944 ft 354 kts 13°
2026-05-04 13:19 37.04435 10.20733 11036 ft 355 kts 13°
2026-05-04 13:19 37.06811 10.21553 11046 ft 354 kts 13°
2026-05-04 13:19 37.09180 10.22373 11048 ft 353 kts 13°
2026-05-04 13:19 37.11550 10.23196 11046 ft 353 kts 13°
2026-05-04 13:20 37.13921 10.24020 11044 ft 353 kts 13°
2026-05-04 13:20 37.16288 10.24843 11043 ft 353 kts 13°
2026-05-04 13:20 37.18647 10.25637 11034 ft 345 kts 12°
2026-05-04 13:20 37.20936 10.26339 10835 ft 334 kts 11°
2026-05-04 13:21 37.23180 10.27019 10476 ft 330 kts 11°
2026-05-04 13:21 37.25340 10.27924 10155 ft 327 kts 26°
2026-05-04 13:21 37.27126 10.29645 9943 ft 322 kts 47°
2026-05-04 13:21 37.28311 10.31970 9801 ft 313 kts 67°
2026-05-04 13:22 37.28789 10.34553 9679 ft 305 kts 87°
2026-05-04 13:22 37.28563 10.37214 9543 ft 303 kts 107°
2026-05-04 13:22 37.27686 10.39558 9414 ft 301 kts 127°
2026-05-04 13:22 37.26245 10.41428 9285 ft 297 kts 146°
2026-05-04 13:23 37.24404 10.42623 9080 ft 294 kts 164°
2026-05-04 13:23 37.22398 10.43077 8665 ft 290 kts 176°
2026-05-04 13:23 37.20412 10.43356 8360 ft 286 kts 175°
2026-05-04 13:23 37.18474 10.43651 8014 ft 283 kts 175°
2026-05-04 13:24 37.16524 10.43958 7659 ft 281 kts 174°
2026-05-04 13:24 37.14639 10.44260 7525 ft 263 kts 175°
2026-05-04 13:24 37.12868 10.44542 7198 ft 252 kts 175°
2026-05-04 13:25 37.09443 10.45073 6209 ft 245 kts 175°
2026-05-04 13:25 37.07769 10.45328 5675 ft 242 kts 175°
2026-05-04 13:25 37.06082 10.45583 5269 ft 243 kts 175°
2026-05-04 13:25 37.04414 10.45837 4948 ft 241 kts 175°
2026-05-04 13:26 37.02760 10.46160 4594 ft 241 kts 163°
2026-05-04 13:26 37.01330 10.47219 4230 ft 243 kts 136°
2026-05-04 13:26 37.00457 10.49012 3871 ft 244 kts 107°
2026-05-04 13:26 37.00366 10.51115 3512 ft 245 kts 79°
2026-05-04 13:27 37.01076 10.53035 3142 ft 245 kts 49°
2026-05-04 13:27 37.02271 10.54541 2997 ft 243 kts 43°
2026-05-04 13:27 37.03502 10.56006 2999 ft 246 kts 43°
2026-05-04 13:27 37.04753 10.57482 3006 ft 247 kts 43°
2026-05-04 13:28 37.06197 10.58606 3007 ft 246 kts 15°
2026-05-04 13:28 37.07886 10.58713 3013 ft 253 kts 345°
2026-05-04 13:28 37.08791 10.58303 3012 ft 258 kts 328°
2026-05-04 13:28 37.10066 10.56778 3006 ft 252 kts 297°
2026-05-04 13:29 37.10534 10.54721 3000 ft 245 kts 268°
2026-05-04 13:29 37.10145 10.52666 3002 ft 245 kts 239°
2026-05-04 13:29 37.09063 10.51040 2999 ft 244 kts 224°
2026-05-04 13:29 37.07825 10.49551 3001 ft 248 kts 223°
2026-05-04 13:30 37.06572 10.48070 3002 ft 247 kts 223°
2026-05-04 13:30 37.05342 10.46619 3001 ft 246 kts 224°
2026-05-04 13:30 37.04095 10.45117 3001 ft 245 kts 227°
2026-05-04 13:30 37.03104 10.43395 3001 ft 243 kts 243°
2026-05-04 13:31 37.02622 10.41418 2991 ft 237 kts 263°
2026-05-04 13:31 37.02754 10.39402 2993 ft 237 kts 285°
2026-05-04 13:31 37.03480 10.37546 2995 ft 240 kts 300°
2026-05-04 13:31 37.04307 10.35732 2993 ft 239 kts 290°
2026-05-04 13:32 37.04723 10.33739 2991 ft 236 kts 273°
2026-05-04 13:32 37.04611 10.31692 2990 ft 236 kts 255°
2026-05-04 13:32 37.04009 10.29857 2998 ft 219 kts 237°
2026-05-04 13:32 37.03075 10.28453 2998 ft 204 kts 221°
2026-05-04 13:33 37.01940 10.27488 2937 ft 193 kts 206°
2026-05-04 13:33 37.00696 10.26951 2789 ft 187 kts 192°
2026-05-04 13:33 36.99432 10.26607 2536 ft 184 kts 193°
2026-05-04 13:33 36.98205 10.26274 2311 ft 178 kts 192°
2026-05-04 13:34 36.97019 10.25950 2075 ft 169 kts 192°
2026-05-04 13:34 36.95908 10.25647 1847 ft 157 kts 192°
2026-05-04 13:34 36.94886 10.25367 1686 ft 146 kts 191°
2026-05-04 13:34 36.93908 10.25100 1495 ft 143 kts 189°
2026-05-04 13:35 36.92942 10.24837 1294 ft 141 kts 190°
2026-05-04 13:35 36.91048 10.24319 929 ft 139 kts 189°
2026-05-04 13:35 36.90090 10.24054 724 ft 142 kts 189°
2026-05-04 13:36 36.89133 10.23795 550 ft 140 kts 187°
2026-05-04 13:36 36.88164 10.23531 379 ft 146 kts 189°
2026-05-04 13:36 36.87172 10.23261 158 ft 146 kts 188°
2026-05-04 13:36 36.86196 10.22993 32 ft 134 kts 188°
2026-05-04 13:37 36.85454 10.22796 33 ft 86 kts 192°
2026-05-04 13:37 36.84942 10.22655 33 ft 69 kts 192°
2026-05-04 13:37 36.84556 10.22552 28 ft 44 kts 193°
2026-05-04 13:37 36.84383 10.22504 30 ft 36 kts 192°
2026-05-04 13:38 36.84071 10.22419 31 ft 33 kts 192°
2026-05-04 13:38 36.83895 10.22261 31 ft 32 kts 232°
2026-05-04 13:38 36.83883 10.22002 30 ft 27 kts 279°
2026-05-04 13:38 36.83955 10.21853 30 ft 19 kts
2026-05-04 13:39 36.84079 10.21887 30 ft 18 kts 11°
2026-05-04 13:39 36.84209 10.21920 30 ft 20 kts 12°
2026-05-04 13:39 36.84313 10.21929 30 ft 9 kts 318°
2026-05-04 13:39 36.84319 10.21889 30 ft 4 kts 284°
2026-05-04 13:40 36.84324 10.21861 30 ft 3 kts 282°
2026-05-04 13:40 36.84325 10.21855 30 ft 0 kts 282°